Overview Statistics Trail Chart Weather Telemetry Raw packets
 

This is the latest recevied weather packets stored in our database for station/object OK2ZAW-21. If no packets are shown the sender has not sent any weather packets the latest 10 day(s).

<< 87 88 89 90 91 92 93 >>
Time Temp. Humidity Pressure Rain* Wind** Luminosity Snow
1788020434 23.33° C 50% 1019.8 hPa - - 421 W/m² -
1788020123 21.67° C 55% 1019.7 hPa - - 421 W/m² -
1788019811 21.67° C 56% 1019.7 hPa - - 420 W/m² -
1788019500 21.11° C 55% 1019.2 hPa - - 421 W/m² -
1788019188 23.33° C 48% 1019.7 hPa - - 421 W/m² -
1788018876 24.44° C 45% 1019.7 hPa - - 421 W/m² -
1788018564 26.11° C 43% 1019.8 hPa - - 421 W/m² -
1788018252 27.22° C 41% 1019.8 hPa - - 421 W/m² -
1788017940 27.78° C 43% 1019.8 hPa - - 421 W/m² -
1788017628 26.11° C 46% 1019.9 hPa - - 421 W/m² -
1788017317 23.89° C 49% 1019.8 hPa - - 420 W/m² -
1788017005 22.22° C 54% 1019.8 hPa - - 421 W/m² -
1788016694 22.78° C 53% 1019.9 hPa - - 421 W/m² -
1788016382 20.56° C 60% 1020 hPa - - 421 W/m² -
1788016071 20.56° C 59% 1020 hPa - - 421 W/m² -
1788015760 21.11° C 58% 1020 hPa - - 421 W/m² -
1788015448 21.11° C 55% 1020 hPa - - 421 W/m² -
1788015137 21.67° C 54% 1020.1 hPa - - 421 W/m² -
1788014825 23.33° C 51% 1020 hPa - - 421 W/m² -
1788014513 21.67° C 54% 1019.9 hPa - - 421 W/m² -
1788014202 25° C 46% 1020 hPa - - 421 W/m² -
1788013890 23.33° C 50% 1019.9 hPa - - 421 W/m² -
1788013578 23.33° C 50% 1019.5 hPa - - 421 W/m² -
1788013267 21.11° C 56% 1020 hPa - - 421 W/m² -
1788012955 21.67° C 54% 1020 hPa - - 422 W/m² -

* Rain since midnight (hover to see other rain measurements)
** Current wind speed in m/s (hover to see current wind gust speed)